| time (UTC) | temp C | wind direction | speed KPH | gust KPH | rain 1hr cm | rain 24hr cm | rain mn cm | humidity % | barometer mb |
| 20260906034004 | 20 | 272 | 8.0 | 8.0 | 0.00 | 0.00 | 0.00 | 54 | 1021.9 |
| 20260906033504 | 21 | 260 | 4.8 | 6.4 | 0.00 | 0.00 | 0.00 | 53 | 1022.1 |
| 20260906033004 | 21 | 227 | 3.2 | 4.8 | 0.00 | 0.00 | 0.00 | 52 | 1021.9 |
| 20260906032503 | 21 | 256 | 3.2 | 4.8 | 0.00 | 0.00 | 0.00 | 51 | 1021.9 |
| 20260906032003 | 21 | 263 | 6.4 | 6.4 | 0.00 | 0.00 | 0.00 | 52 | 1022.0 |
| 20260906031503 | 21 | 269 | 4.8 | 6.4 | 0.00 | 0.00 | 0.00 | 52 | 1021.9 |
| 20260906025503 | 21 | 269 | 3.2 | 3.2 | 0.00 | 0.00 | 0.00 | 52 | 1021.8 |
| 20260906025003 | 21 | 246 | 0.0 | 0.0 | 0.00 | 0.00 | 0.00 | 53 | 1021.7 |
| 20260906024504 | 21 | 309 | 0.0 | 0.0 | 0.00 | 0.00 | 0.00 | 52 | 1021.7 |
| 20260906024004 | 21 | 0 | 0.0 | 0.0 | 0.00 | 0.00 | 0.00 | 52 | 1021.7 |
| 20260906023504 | 21 | 309 | 0.0 | 0.0 | 0.00 | 0.00 | 0.00 | 52 | 1021.6 |
| 20260906023004 | 21 | 147 | 0.0 | 3.2 | 0.00 | 0.00 | 0.00 | 51 | 1021.7 |
| 20260906022503 | 22 | 207 | 6.4 | 8.0 | 0.00 | 0.00 | 0.00 | 51 | 1021.7 |
| 20260906022003 | 22 | 197 | 6.4 | 9.7 | 0.00 | 0.00 | 0.00 | 50 | 1021.8 |
| 20260906021504 | 22 | 199 | 4.8 | 4.8 | 0.00 | 0.00 | 0.00 | 50 | 1021.7 |
| 20260906015503 | 22 | 260 | 4.8 | 8.0 | 0.00 | 0.00 | 0.00 | 49 | 1021.7 |
| 20260906015004 | 22 | 199 | 9.7 | 12.9 | 0.00 | 0.00 | 0.00 | 49 | 1021.9 |
| 20260906014503 | 22 | 268 | 6.4 | 8.0 | 0.00 | 0.00 | 0.00 | 49 | 1021.8 |
| 20260906014003 | 22 | 259 | 8.0 | 8.0 | 0.00 | 0.00 | 0.00 | 49 | 1021.8 |
| 20260906013503 | 23 | 197 | 4.8 | 6.4 | 0.00 | 0.00 | 0.00 | 49 | 1021.8 |
| 20260906013003 | 23 | 262 | 8.0 | 14.5 | 0.00 | 0.00 | 0.00 | 48 | 1021.9 |
| 20260906012503 | 23 | 256 | 6.4 | 11.3 | 0.00 | 0.00 | 0.00 | 48 | 1021.8 |
| 20260906012003 | 23 | 248 | 8.0 | 8.0 | 0.00 | 0.00 | 0.00 | 48 | 1021.9 |
| 20260906011504 | 23 | 225 | 8.0 | 16.1 | 0.00 | 0.00 | 0.00 | 48 | 1021.7 |
| 20260906005503 | 23 | 248 | 4.8 | 6.4 | 0.00 | 0.00 | 0.00 | 47 | 1021.9 |
| 20260906005003 | 23 | 260 | 6.4 | 12.9 | 0.00 | 0.00 | 0.00 | 47 | 1022.0 |
| 20260906004504 | 24 | 223 | 11.3 | 16.1 | 0.00 | 0.00 | 0.00 | 47 | 1022.2 |
| 20260906004003 | 24 | 190 | 8.0 | 19.3 | 0.00 | 0.00 | 0.00 | 47 | 1021.9 |
| 20260906003503 | 24 | 238 | 11.3 | 22.5 | 0.00 | 0.00 | 0.00 | 47 | 1022.0 |
| 20260906003004 | 23 | 158 | 9.7 | 16.1 | 0.00 | 0.00 | 0.00 | 49 | 1022.1 |
| 20260906002503 | 23 | 180 | 9.7 | 14.5 | 0.00 | 0.00 | 0.00 | 49 | 1022.1 |
| 20260906002003 | 23 | 257 | 16.1 | 17.7 | 0.00 | 0.00 | 0.00 | 49 | 1022.0 |
| 20260906001504 | 23 | 219 | 4.8 | 22.5 | 0.00 | 0.00 | 0.00 | 49 | 1022.0 |
| 20260906001004 | 24 | 201 | 12.9 | 24.1 | 0.00 | 0.00 | 0.00 | 48 | 1022.0 |
| 20260906000504 | 25 | 197 | 11.3 | 24.1 | 0.00 | 0.00 | 0.00 | 47 | 1021.9 |
| 20260906000006 | 25 | 206 | 12.9 | 29.0 | 0.00 | 0.00 | 0.00 | 47 | 1022.0 |
| 20260905235503 | 25 | 202 | 24.1 | 29.0 | 0.00 | 0.00 | 0.00 | 46 | 1022.1 |
| 20260905235003 | 25 | 218 | 11.3 | 24.1 | 0.00 | 0.00 | 0.00 | 47 | 1022.0 |
| 20260905234504 | 23 | 226 | 17.7 | 32.2 | 0.00 | 0.00 | 0.00 | 49 | 1021.9 |
| 20260905234004 | 23 | 218 | 11.3 | 17.7 | 0.00 | 0.00 | 0.00 | 50 | 1021.9 |
| 20260905233504 | 24 | 207 | 24.1 | 32.2 | 0.00 | 0.00 | 0.00 | 49 | 1021.9 |
| 20260905233004 | 24 | 206 | 11.3 | 24.1 | 0.00 | 0.00 | 0.00 | 48 | 1021.9 |
| 20260905232503 | 24 | 215 | 12.9 | 17.7 | 0.00 | 0.00 | 0.00 | 47 | 1022.2 |
| 20260905232003 | 24 | 240 | 12.9 | 20.9 | 0.00 | 0.00 | 0.00 | 47 | 1022.1 |
| 20260905231504 | 24 | 227 | 16.1 | 24.1 | 0.00 | 0.00 | 0.00 | 47 | 1022.0 |
| 20260905231004 | 24 | 192 | 20.9 | 27.4 | 0.00 | 0.00 | 0.00 | 46 | 1022.0 |
| 20260905230504 | 24 | 253 | 11.3 | 22.5 | 0.00 | 0.00 | 0.00 | 45 | 1021.9 |
| 20260905230004 | 25 | 174 | 6.4 | 11.3 | 0.00 | 0.00 | 0.00 | 45 | 1022.0 |
| 20260905225504 | 24 | 190 | 17.7 | 17.7 | 0.00 | 0.00 | 0.00 | 46 | 1022.2 |
| 20260905225004 | 24 | 150 | 11.3 | 22.5 | 0.00 | 0.00 | 0.00 | 46 | 1022.0 |
| 20260905224504 | 24 | 196 | 3.2 | 20.9 | 0.00 | 0.00 | 0.00 | 47 | 1022.3 |
| 20260905224004 | 24 | 195 | 6.4 | 19.3 | 0.00 | 0.00 | 0.00 | 46 | 1022.3 |
| 20260905223504 | 24 | 169 | 8.0 | 9.7 | 0.00 | 0.00 | 0.00 | 48 | 1022.2 |
| 20260905223004 | 23 | 57 | 3.2 | 20.9 | 0.00 | 0.00 | 0.00 | 50 | 1022.0 |
| 20260905222504 | 23 | 138 | 14.5 | 22.5 | 0.00 | 0.00 | 0.00 | 51 | 1022.3 |
| 20260905222004 | 24 | 130 | 9.7 | 27.4 | 0.00 | 0.00 | 0.00 | 51 | 1022.2 |
| 20260905221503 | 24 | 163 | 4.8 | 16.1 | 0.00 | 0.00 | 0.00 | 50 | 1022.2 |
| 20260905221003 | 23 | 206 | 8.0 | 20.9 | 0.00 | 0.00 | 0.00 | 51 | 1022.3 |
| 20260905220504 | 24 | 158 | 14.5 | 30.6 | 0.00 | 0.00 | 0.00 | 50 | 1022.4 |
| 20260905220003 | 24 | 174 | 17.7 | 24.1 | 0.00 | 0.00 | 0.00 | 48 | 1022.3 |
| 20260905215504 | 25 | 184 | 25.7 | 27.4 | 0.00 | 0.00 | 0.00 | 47 | 1022.3 |
| 20260905215003 | 25 | 142 | 12.9 | 24.1 | 0.00 | 0.00 | 0.00 | 45 | 1022.1 |
| 20260905213003 | 26 | 218 | 11.3 | 24.1 | 0.00 | 0.00 | 0.00 | 43 | 1022.1 |
| 20260905212503 | 26 | 183 | 14.5 | 29.0 | 0.00 | 0.00 | 0.00 | 43 | 1022.3 |
| 20260905212004 | 26 | 149 | 19.3 | 29.0 | 0.00 | 0.00 | 0.00 | 42 | 1022.3 |
| 20260905211503 | 26 | 169 | 12.9 | 25.7 | 0.00 | 0.00 | 0.00 | 42 | 1022.3 |
| 20260905211003 | 27 | 200 | 6.4 | 27.4 | 0.00 | 0.00 | 0.00 | 40 | 1022.3 |
| 20260905210503 | 27 | 163 | 4.8 | 19.3 | 0.00 | 0.00 | 0.00 | 41 | 1022.3 |
| 20260905210003 | 26 | 157 | 4.8 | 32.2 | 0.00 | 0.00 | 0.00 | 42 | 1022.3 |
| 20260905205503 | 26 | 141 | 11.3 | 24.1 | 0.00 | 0.00 | 0.00 | 42 | 1022.4 |
| 20260905205004 | 26 | 198 | 19.3 | 24.1 | 0.00 | 0.00 | 0.00 | 42 | 1022.3 |
| 20260905204503 | 25 | 247 | 8.0 | 22.5 | 0.00 | 0.00 | 0.00 | 43 | 1022.3 |
| 20260905204003 | 26 | 216 | 24.1 | 32.2 | 0.00 | 0.00 | 0.00 | 42 | 1022.5 |
| 20260905203503 | 26 | 197 | 6.4 | 19.3 | 0.00 | 0.00 | 0.00 | 41 | 1022.5 |
| 20260905203003 | 26 | 140 | 16.1 | 32.2 | 0.00 | 0.00 | 0.00 | 41 | 1022.5 |
| 20260905202503 | 26 | 119 | 8.0 | 22.5 | 0.00 | 0.00 | 0.00 | 39 | 1022.4 |
| 20260905202003 | 26 | 136 | 30.6 | 35.4 | 0.00 | 0.00 | 0.00 | 39 | 1022.4 |
| 20260905201504 | 26 | 143 | 8.0 | 25.7 | 0.00 | 0.00 | 0.00 | 40 | 1022.5 |
| 20260905201004 | 26 | 221 | 20.9 | 29.0 | 0.00 | 0.00 | 0.00 | 38 | 1022.6 |
| 20260905200504 | 27 | 207 | 24.1 | 37.0 | 0.00 | 0.00 | 0.00 | 39 | 1022.5 |
| 20260905200004 | 27 | 222 | 16.1 | 27.4 | 0.00 | 0.00 | 0.00 | 37 | 1022.5 |
| 20260905195504 | 26 | 140 | 11.3 | 14.5 | 0.00 | 0.00 | 0.00 | 39 | 1022.5 |
| 20260905193503 | 25 | 215 | 11.3 | 24.1 | 0.00 | 0.00 | 0.00 | 39 | 1023.0 |
| 20260905193003 | 26 | 245 | 19.3 | 32.2 | 0.00 | 0.00 | 0.00 | 38 | 1022.9 |
| 20260905192503 | 25 | 185 | 8.0 | 14.5 | 0.00 | 0.00 | 0.00 | 37 | 1022.7 |
| 20260905192003 | 26 | 131 | 20.9 | 30.6 | 0.00 | 0.00 | 0.00 | 36 | 1022.9 |
| 20260905191504 | 26 | 141 | 19.3 | 22.5 | 0.00 | 0.00 | 0.00 | 36 | 1023.1 |
| 20260905191003 | 26 | 133 | 11.3 | 22.5 | 0.00 | 0.00 | 0.00 | 35 | 1022.9 |
| 20260905185003 | 26 | 182 | 12.9 | 14.5 | 0.00 | 0.00 | 0.00 | 34 | 1023.4 |
| 20260905184503 | 26 | 199 | 11.3 | 20.9 | 0.00 | 0.00 | 0.00 | 34 | 1023.5 |
| 20260905184003 | 26 | 153 | 9.7 | 19.3 | 0.00 | 0.00 | 0.00 | 35 | 1023.2 |
| 20260905183503 | 26 | 145 | 3.2 | 24.1 | 0.00 | 0.00 | 0.00 | 34 | 1023.2 |
| 20260905183003 | 25 | 222 | 6.4 | 14.5 | 0.00 | 0.00 | 0.00 | 34 | 1023.2 |
| 20260905182503 | 26 | 196 | 22.5 | 30.6 | 0.00 | 0.00 | 0.00 | 33 | 1023.2 |
| 20260905182004 | 25 | 248 | 8.0 | 19.3 | 0.00 | 0.00 | 0.00 | 33 | 1023.5 |
| 20260905181504 | 26 | 336 | 4.8 | 24.1 | 0.00 | 0.00 | 0.00 | 33 | 1023.5 |
| 20260905181004 | 26 | 165 | 11.3 | 19.3 | 0.00 | 0.00 | 0.00 | 34 | 1023.4 |
| 20260905180503 | 25 | 189 | 8.0 | 16.1 | 0.00 | 0.00 | 0.00 | 34 | 1023.1 |
| 20260905180004 | 25 | 152 | 12.9 | 30.6 | 0.00 | 0.00 | 0.00 | 35 | 1023.4 |
| 20260905175504 | 25 | 141 | 11.3 | 25.7 | 0.00 | 0.00 | 0.00 | 36 | 1023.5 |
| 20260905173504 | 26 | 145 | 9.7 | 12.9 | 0.00 | 0.00 | 0.00 | 34 | 1023.1 |
| 20260905173004 | 26 | 117 | 9.7 | 24.1 | 0.00 | 0.00 | 0.00 | 35 | 1023.2 |
| 20260905172504 | 25 | 139 | 14.5 | 24.1 | 0.00 | 0.00 | 0.00 | 35 | 1023.2 |
| 20260905170504 | 25 | 182 | 17.7 | 22.5 | 0.00 | 0.00 | 0.00 | 33 | 1023.2 |
| 20260905170004 | 26 | 170 | 8.0 | 20.9 | 0.00 | 0.00 | 0.00 | 34 | 1023.1 |
| 20260905165504 | 25 | 150 | 11.3 | 16.1 | 0.00 | 0.00 | 0.00 | 35 | 1023.4 |
| 20260905165004 | 25 | 201 | 8.0 | 27.4 | 0.00 | 0.00 | 0.00 | 34 | 1023.1 |
| 20260905164504 | 25 | 173 | 16.1 | 25.7 | 0.00 | 0.00 | 0.00 | 35 | 1023.4 |
| 20260905164004 | 25 | 227 | 12.9 | 20.9 | 0.00 | 0.00 | 0.00 | 35 | 1023.1 |
| 20260905163504 | 25 | 153 | 0.0 | 12.9 | 0.00 | 0.00 | 0.00 | 37 | 1023.1 |
| 20260905163004 | 25 | 192 | 4.8 | 12.9 | 0.00 | 0.00 | 0.00 | 37 | 1023.1 |
| 20260905162503 | 25 | 128 | 6.4 | 20.9 | 0.00 | 0.00 | 0.00 | 38 | 1023.0 |
| 20260905162003 | 25 | 128 | 17.7 | 20.9 | 0.00 | 0.00 | 0.00 | 38 | 1023.2 |
| 20260905161504 | 24 | 118 | 9.7 | 25.7 | 0.00 | 0.00 | 0.00 | 39 | 1022.9 |
| 20260905161004 | 25 | 112 | 9.7 | 16.1 | 0.00 | 0.00 | 0.00 | 38 | 1022.8 |
| 20260905160504 | 25 | 141 | 14.5 | 17.7 | 0.00 | 0.00 | 0.00 | 38 | 1022.9 |
| 20260905160004 | 24 | 135 | 8.0 | 17.7 | 0.00 | 0.00 | 0.00 | 38 | 1023.0 |
| 20260905155503 | 25 | 136 | 4.8 | 16.1 | 0.00 | 0.00 | 0.00 | 37 | 1023.0 |
| 20260905155003 | 24 | 126 | 8.0 | 20.9 | 0.00 | 0.00 | 0.00 | 38 | 1022.8 |
| 20260905154503 | 24 | 185 | 4.8 | 14.5 | 0.00 | 0.00 | 0.00 | 38 | 1022.8 |
| 20260905154003 | 25 | 106 | 8.0 | 11.3 | 0.00 | 0.00 | 0.00 | 39 | 1022.7 |
| 20260905153503 | 24 | 125 | 6.4 | 9.7 | 0.00 | 0.00 | 0.00 | 41 | 1023.0 |
| 20260905153004 | 24 | 156 | 4.8 | 9.7 | 0.00 | 0.00 | 0.00 | 41 | 1022.9 |
| 20260905152504 | 23 | 130 | 12.9 | 16.1 | 0.00 | 0.00 | 0.00 | 42 | 1022.8 |
| 20260905152004 | 23 | 82 | 3.2 | 9.7 | 0.00 | 0.00 | 0.00 | 43 | 1022.7 |
| 20260905150003 | 23 | 251 | 0.0 | 9.7 | 0.00 | 0.00 | 0.00 | 45 | 1022.7 |
| 20260905145504 | 22 | 116 | 6.4 | 9.7 | 0.00 | 0.00 | 0.00 | 46 | 1022.7 |
| 20260905145003 | 22 | 128 | 6.4 | 6.4 | 0.00 | 0.00 | 0.00 | 47 | 1022.9 |
| 20260905144503 | 22 | 125 | 8.0 | 9.7 | 0.00 | 0.00 | 0.00 | 43 | 1022.7 |
| 20260905144003 | 22 | 186 | 6.4 | 11.3 | 0.00 | 0.00 | 0.00 | 44 | 1022.8 |
| 20260905143503 | 22 | 162 | 3.2 | 6.4 | 0.00 | 0.00 | 0.00 | 45 | 1022.5 |
| 20260905143003 | 22 | 183 | 3.2 | 3.2 | 0.00 | 0.00 | 0.00 | 46 | 1022.6 |
| 20260905142504 | 21 | 23 | 0.0 | 3.2 | 0.00 | 0.00 | 0.00 | 48 | 1022.6 |
| 20260905141003 | 19 | 79 | 3.2 | 4.8 | 0.00 | 0.00 | 0.00 | 53 | 1022.6 |
| 20260905140503 | 18 | 66 | 0.0 | 4.8 | 0.00 | 0.00 | 0.00 | 55 | 1022.6 |
| 20260905140004 | 18 | 130 | 3.2 | 4.8 | 0.00 | 0.00 | 0.00 | 56 | 1022.5 |
| 20260905135504 | 18 | 234 | 4.8 | 4.8 | 0.00 | 0.00 | 0.00 | 57 | 1022.4 |
| 20260905135004 | 17 | 339 | 0.0 | 3.2 | 0.00 | 0.00 | 0.00 | 59 | 1022.3 |
| 20260905134503 | 16 | 77 | 3.2 | 3.2 | 0.00 | 0.00 | 0.00 | 63 | 1022.4 |
| 20260905134004 | 15 | 259 | 3.2 | 8.0 | 0.00 | 0.00 | 0.00 | 65 | 1022.3 |
| 20260905133503 | 15 | 271 | 6.4 | 8.0 | 0.00 | 0.00 | 0.00 | 66 | 1022.3 |
| 20260905133003 | 14 | 260 | 3.2 | 4.8 | 0.00 | 0.00 | 0.00 | 67 | 1022.3 |
| 20260905132503 | 14 | 201 | 4.8 | 4.8 | 0.00 | 0.00 | 0.00 | 68 | 1022.3 |
| 20260905132004 | 14 | 113 | 6.4 | 6.4 | 0.00 | 0.00 | 0.00 | 67 | 1022.2 |
| 20260905131503 | 13 | 80 | 0.0 | 3.2 | 0.00 | 0.00 | 0.00 | 68 | 1022.0 |
| 20260905131003 | 13 | 283 | 4.8 | 6.4 | 0.00 | 0.00 | 0.00 | 68 | 1021.9 |
| 20260905130504 | 13 | 279 | 4.8 | 6.4 | 0.00 | 0.00 | 0.00 | 69 | 1021.8 |
| 20260905130004 | 13 | 268 | 6.4 | 8.0 | 0.00 | 0.00 | 0.00 | 68 | 1022.1 |
| 20260905125504 | 13 | 262 | 8.0 | 11.3 | 0.00 | 0.00 | 0.00 | 68 | 1022.0 |
| 20260905125004 | 13 | 279 | 4.8 | 8.0 | 0.00 | 0.00 | 0.00 | 67 | 1021.9 |
| 20260905123003 | 13 | 194 | 0.0 | 3.2 | 0.00 | 0.00 | 0.00 | 65 | 1021.7 |
| 20260905122503 | 13 | 37 | 0.0 | 0.0 | 0.00 | 0.00 | 0.00 | 64 | 1021.7 |
| 20260905122004 | 14 | 43 | 0.0 | 3.2 | 0.00 | 0.00 | 0.00 | 63 | 1021.8 |
| 20260905121503 | 15 | 88 | 4.8 | 6.4 | 0.00 | 0.00 | 0.00 | 61 | 1021.6 |
| 20260905121003 | 16 | 308 | 0.0 | 6.4 | 0.00 | 0.00 | 0.00 | 58 | 1021.7 |
| 20260905120503 | 16 | 265 | 6.4 | 8.0 | 0.00 | 0.00 | 0.00 | 57 | 1021.8 |
| 20260905120004 | 16 | 263 | 6.4 | 9.7 | 0.00 | 0.00 | 0.00 | 57 | 1021.7 |
| 20260905115504 | 17 | 261 | 8.0 | 8.0 | 0.00 | 0.00 | 0.00 | 55 | 1021.7 |
| 20260905113504 | 16 | 265 | 8.0 | 11.3 | 0.00 | 0.00 | 0.00 | 54 | 1021.7 |
| 20260905113004 | 16 | 269 | 8.0 | 9.7 | 0.00 | 0.00 | 0.00 | 56 | 1021.6 |
| 20260905112504 | 15 | 267 | 4.8 | 8.0 | 0.00 | 0.00 | 0.00 | 57 | 1021.6 |
| 20260905112004 | 15 | 261 | 8.0 | 8.0 | 0.00 | 0.00 | 0.00 | 58 | 1021.7 |
| 20260905111503 | 15 | 264 | 6.4 | 8.0 | 0.00 | 0.00 | 0.00 | 59 | 1021.7 |
| 20260905111004 | 14 | 237 | 4.8 | 8.0 | 0.00 | 0.00 | 0.00 | 60 | 1021.9 |
| 20260905110503 | 13 | 253 | 6.4 | 6.4 | 0.00 | 0.00 | 0.00 | 62 | 1021.8 |
| 20260905110004 | 13 | 253 | 4.8 | 6.4 | 0.00 | 0.00 | 0.00 | 62 | 1021.8 |
| 20260905105504 | 12 | 249 | 3.2 | 8.0 | 0.00 | 0.00 | 0.00 | 64 | 1021.7 |
| 20260905105003 | 13 | 272 | 4.8 | 4.8 | 0.00 | 0.00 | 0.00 | 63 | 1021.5 |
| 20260905104503 | 13 | 247 | 4.8 | 4.8 | 0.00 | 0.00 | 0.00 | 62 | 1021.7 |
| 20260905104003 | 13 | 263 | 4.8 | 6.4 | 0.00 | 0.00 | 0.00 | 62 | 1021.8 |
| 20260905103503 | 13 | 259 | 3.2 | 4.8 | 0.00 | 0.00 | 0.00 | 60 | 1021.6 |
| 20260905103004 | 14 | 260 | 4.8 | 6.4 | 0.00 | 0.00 | 0.00 | 58 | 1021.7 |
| 20260905102504 | 15 | 234 | 3.2 | 6.4 | 0.00 | 0.00 | 0.00 | 57 | 1021.6 |
| 20260905102004 | 15 | 215 | 3.2 | 4.8 | 0.00 | 0.00 | 0.00 | 56 | 1021.5 |
| 20260905101504 | 15 | 255 | 4.8 | 6.4 | 0.00 | 0.00 | 0.00 | 54 | 1021.5 |
| 20260905101003 | 16 | 265 | 6.4 | 6.4 | 0.00 | 0.00 | 0.00 | 54 | 1021.3 |
| 20260905100503 | 16 | 232 | 4.8 | 6.4 | 0.00 | 0.00 | 0.00 | 53 | 1021.4 |
| 20260905100003 | 16 | 255 | 6.4 | 9.7 | 0.00 | 0.00 | 0.00 | 53 | 1021.6 |
| 20260905095504 | 16 | 197 | 4.8 | 9.7 | 0.00 | 0.00 | 0.00 | 54 | 1021.7 |
| 20260905095004 | 16 | 203 | 9.7 | 11.3 | 0.00 | 0.00 | 0.00 | 52 | 1021.8 |
| 20260905094504 | 16 | 204 | 9.7 | 19.3 | 0.00 | 0.00 | 0.00 | 52 | 1021.7 |
| 20260905094004 | 15 | 243 | 8.0 | 9.7 | 0.00 | 0.00 | 0.00 | 53 | 1021.7 |
| 20260905093503 | 15 | 185 | 6.4 | 11.3 | 0.00 | 0.00 | 0.00 | 53 | 1021.8 |
| 20260905093004 | 15 | 256 | 8.0 | 8.0 | 0.00 | 0.00 | 0.00 | 53 | 1021.6 |
| 20260905092504 | 15 | 248 | 4.8 | 8.0 | 0.00 | 0.00 | 0.00 | 53 | 1021.7 |
| 20260905092004 | 15 | 208 | 4.8 | 8.0 | 0.00 | 0.00 | 0.00 | 52 | 1021.8 |
| 20260905091504 | 15 | 228 | 8.0 | 8.0 | 0.00 | 0.00 | 0.00 | 53 | 1021.8 |
| 20260905091003 | 15 | 216 | 8.0 | 8.0 | 0.00 | 0.00 | 0.00 | 53 | 1021.8 |
| 20260905090503 | 15 | 229 | 0.0 | 9.7 | 0.00 | 0.00 | 0.00 | 52 | 1021.9 |
| 20260905090004 | 14 | 202 | 6.4 | 8.0 | 0.00 | 0.00 | 0.00 | 54 | 1021.7 |
| 20260905085503 | 13 | 225 | 4.8 | 6.4 | 0.00 | 0.00 | 0.00 | 55 | 1021.8 |
| 20260905085003 | 13 | 269 | 0.0 | 6.4 | 0.00 | 0.00 | 0.00 | 56 | 1021.8 |
| 20260905084504 | 13 | 244 | 3.2 | 6.4 | 0.00 | 0.00 | 0.00 | 56 | 1021.8 |
| 20260905084004 | 13 | 247 | 3.2 | 4.8 | 0.00 | 0.00 | 0.00 | 55 | 1021.9 |
| 20260905083504 | 14 | 256 | 3.2 | 8.0 | 0.00 | 0.00 | 0.00 | 54 | 1021.9 |
| 20260905083004 | 14 | 242 | 0.0 | 6.4 | 0.00 | 0.00 | 0.00 | 54 | 1021.8 |
| 20260905082503 | 14 | 274 | 3.2 | 3.2 | 0.00 | 0.00 | 0.00 | 53 | 1022.0 |
| 20260905082003 | 14 | 280 | 4.8 | 8.0 | 0.00 | 0.00 | 0.00 | 53 | 1022.1 |
| 20260905081504 | 14 | 257 | 4.8 | 4.8 | 0.00 | 0.00 | 0.00 | 54 | 1022.1 |
| 20260905075503 | 14 | 263 | 6.4 | 6.4 | 0.00 | 0.00 | 0.00 | 54 | 1022.0 |
| 20260905075003 | 14 | 261 | 3.2 | 4.8 | 0.00 | 0.00 | 0.00 | 55 | 1022.1 |
| 20260905074503 | 15 | 264 | 4.8 | 6.4 | 0.00 | 0.00 | 0.00 | 53 | 1021.9 |
| 20260905074003 | 15 | 273 | 6.4 | 8.0 | 0.00 | 0.00 | 0.00 | 53 | 1021.8 |
| 20260905073503 | 15 | 267 | 4.8 | 4.8 | 0.00 | 0.00 | 0.00 | 53 | 1022.2 |
| 20260905073004 | 15 | 267 | 4.8 | 4.8 | 0.00 | 0.00 | 0.00 | 52 | 1022.0 |
| 20260905071004 | 16 | 259 | 4.8 | 6.4 | 0.00 | 0.00 | 0.00 | 50 | 1022.0 |
| 20260905070504 | 16 | 260 | 3.2 | 4.8 | 0.00 | 0.00 | 0.00 | 49 | 1022.0 |
| 20260905070004 | 16 | 266 | 3.2 | 4.8 | 0.00 | 0.00 | 0.00 | 49 | 1022.0 |
| 20260905065504 | 17 | 266 | 3.2 | 4.8 | 0.00 | 0.00 | 0.00 | 48 | 1022.1 |
| 20260905065004 | 17 | 261 | 4.8 | 4.8 | 0.00 | 0.00 | 0.00 | 46 | 1022.1 |
| 20260905064504 | 17 | 272 | 3.2 | 4.8 | 0.00 | 0.00 | 0.00 | 46 | 1022.2 |
| 20260905062503 | 18 | 229 | 4.8 | 8.0 | 0.00 | 0.00 | 0.00 | 43 | 1021.8 |
| 20260905062003 | 19 | 240 | 4.8 | 4.8 | 0.00 | 0.00 | 0.00 | 43 | 1021.7 |
| 20260905061504 | 18 | 259 | 4.8 | 4.8 | 0.00 | 0.00 | 0.00 | 43 | 1021.9 |
| 20260905054004 | 20 | 254 | 0.0 | 4.8 | 0.00 | 0.00 | 0.00 | 44 | 1021.7 |
| 20260905053504 | 20 | 237 | 4.8 | 6.4 | 0.00 | 0.00 | 0.00 | 44 | 1021.8 |
| 20260905053004 | 20 | 201 | 3.2 | 4.8 | 0.00 | 0.00 | 0.00 | 43 | 1021.8 |
| 20260905052503 | 20 | 229 | 4.8 | 6.4 | 0.00 | 0.00 | 0.00 | 43 | 1021.8 |
| 20260905052003 | 20 | 219 | 6.4 | 8.0 | 0.00 | 0.00 | 0.00 | 44 | 1021.9 |
| 20260905051503 | 20 | 224 | 4.8 | 8.0 | 0.00 | 0.00 | 0.00 | 44 | 1021.8 |
| 20260905051003 | 21 | 215 | 6.4 | 9.7 | 0.00 | 0.00 | 0.00 | 43 | 1021.6 |
| 20260905050503 | 21 | 219 | 4.8 | 9.7 | 0.00 | 0.00 | 0.00 | 43 | 1021.7 |
| 20260905050004 | 21 | 205 | 8.0 | 8.0 | 0.00 | 0.00 | 0.00 | 42 | 1021.7 |
| 20260905045504 | 21 | 199 | 6.4 | 6.4 | 0.00 | 0.00 | 0.00 | 42 | 1021.8 |
| 20260905045004 | 21 | 209 | 3.2 | 11.3 | 0.00 | 0.00 | 0.00 | 42 | 1021.5 |
| 20260905044504 | 21 | 190 | 8.0 | 14.5 | 0.00 | 0.00 | 0.00 | 43 | 1021.5 |
| 20260905042504 | 21 | 215 | 6.4 | 9.7 | 0.00 | 0.00 | 0.00 | 51 | 1021.5 |
| 20260905042004 | 22 | 188 | 11.3 | 16.1 | 0.00 | 0.00 | 0.00 | 50 | 1021.6 |
| 20260905041504 | 22 | 194 | 12.9 | 14.5 | 0.00 | 0.00 | 0.00 | 51 | 1021.7 |
| 20260905041003 | 21 | 181 | 11.3 | 14.5 | 0.00 | 0.00 | 0.00 | 51 | 1021.3 |
| 20260905040503 | 21 | 193 | 8.0 | 11.3 | 0.00 | 0.00 | 0.00 | 51 | 1021.3 |
| 20260905040004 | 22 | 178 | 6.4 | 14.5 | 0.00 | 0.00 | 0.00 | 50 | 1021.3 |
| 20260905035503 | 22 | 173 | 14.5 | 14.5 | 0.00 | 0.00 | 0.00 | 50 | 1021.4 |
| 20260905035003 | 22 | 208 | 11.3 | 14.5 | 0.00 | 0.00 | 0.00 | 50 | 1021.5 |
| 20260905034504 | 22 | 173 | 8.0 | 12.9 | 0.00 | 0.00 | 0.00 | 50 | 1021.3 |